Darstellungsparameter: Aktuell verwendete Einstellungen:
Skalierung der Graphiken ... ?
xyx+y,   Skalierungsfaktor:      Skalierung: Modus: x, Faktor: 1
Darstellungszeitraum ... ?
Vom - - bis: - -   Zeitraum: 01.01.2014 - 31.12.2015
Min/Max/Avg-Anzeige ... ?
Zeige MMA aktuell
Zeige MMA Monat
Zeige MMA alles
Zeige --A aktuell
Zeige --A Monat
Zeige --A alles
Keine MMA-Anzeige
MMA:
Keine MMA-Graphiken
MMA-Basis: 01.01.2014 - 31.12.2015
Quicknavigation für Darstellung... ?
Tage:      1T, 2T, 3T, 5T -1T -2T -3T -5T +1T +2T +3T +5T
Wochen: 1W, 2W, 3W -1W -2W -3W +1W +2W +3W
Monate: 1M, 3M, 6M -1M -3M -6M +1M +3M +6M
Jahre:    1J, 3J, 5J, 10J -1J -3J -5J -10J +1J +3J +5J +10J
Nutze für die Darstellung ... ?
Originaldaten oder ...
Mittelwerte Minima Maxima auf...
Stundenbasis Tagesbasis Wochenbasis
Monatsbasis Jahresbasis      Datenbasis: Mittelwerte auf Tagesbasis
Darstellen als:
Statistik (Auto) Statistik J:M      Darstellung:
Zur Graphik,    zurück zur Übersicht aller Sensoren.
 
Tabellarische Datenbersicht: ?
 
Sensor: Nr:Datum:Temp:Feuchte:Taupunkt:
Aussen-T/F 1 01-01-2014 00:00:00 6.46912 C 86.4737 % 4.38 C
2 02-01-2014 00:00:00 8.31947 C 88.5649 % 6.54 C
3 03-01-2014 00:00:00 8.74861 C 86.5347 % 6.63 C
4 04-01-2014 00:00:00 7.47049 C 88.5833 % 5.71 C
5 05-01-2014 00:00:00 6.13111 C 91.4622 % 4.85 C
6 06-01-2014 00:00:00 8.33819 C 89.1736 % 6.66 C
7 07-01-2014 00:00:00 10.72882 C 85.7708 % 8.45 C
8 08-01-2014 00:00:00 10.3965 C 86.9027 % 8.31 C
9 09-01-2014 00:00:00 9.27876 C 85.9961 % 7.06 C
10 10-01-2014 00:00:00 5.59896 C 86.9757 % 3.61 C
11 11-01-2014 00:00:00 3.80382 C 93.2049 % 2.81 C
12 12-01-2014 00:00:00 0.34545 C 97.0618 % -0.06 C
13 13-01-2014 00:00:00 3.73194 C 95.9965 % 3.15 C
14 14-01-2014 00:00:00 5.06036 C 94.4536 % 4.25 C
15 15-01-2014 00:00:00 4.1934 C 91.9444 % 3 C
16 16-01-2014 00:00:00 6.5375 C 93.3160 % 5.54 C
17 17-01-2014 00:00:00 6.75 C 92.8021 % 5.67 C
18 18-01-2014 00:00:00 4.5321 C 90.4686 % 3.11 C
19 19-01-2014 00:00:00 4.621 C 92.0569 % 3.44 C
20 20-01-2014 00:00:00 4.32836 C 94.6567 % 3.55 C
21 21-01-2014 00:00:00 3.49792 C 93.6632 % 2.58 C
22 22-01-2014 00:00:00 3.18571 C 95.3022 % 2.51 C
23 23-01-2014 00:00:00 3.72927 C 92.3049 % 2.6 C
24 24-01-2014 00:00:00 3.90268 C 93.5670 % 2.96 C
25 25-01-2014 00:00:00 2.8165 C 94.8000 % 2.07 C
Sensor: Nr:Datum:Temp:Feuchte:Taupunkt:
Aussen-T/F 26 26-01-2014 00:00:00 5.11851 C 83.3630 % 2.54 C
27 27-01-2014 00:00:00 4.4199 C 87.2094 % 2.48 C
28 28-01-2014 00:00:00 2.36869 C 88.8889 % 0.73 C
29 29-01-2014 00:00:00 1.54036 C 85.8253 % -0.57 C
30 30-01-2014 00:00:00 1.98611 C 84.2049 % -0.39 C
31 31-01-2014 00:00:00 1.03819 C 91.0799 % -0.25 C
32 01-02-2014 00:00:00 4.63819 C 89.8646 % 3.12 C
33 02-02-2014 00:00:00 4.14306 C 90.0729 % 2.66 C
34 03-02-2014 00:00:00 1.00938 C 95.5486 % 0.38 C
35 04-02-2014 00:00:00 4.28785 C 89.7083 % 2.75 C
36 05-02-2014 00:00:00 4.74236 C 89.7049 % 3.2 C
37 06-02-2014 00:00:00 8.42431 C 76.6181 % 4.56 C
38 07-02-2014 00:00:00 8.79132 C 78.4410 % 5.25 C
39 08-02-2014 00:00:00 6.5309 C 83.7222 % 3.98 C
40 09-02-2014 00:00:00 5.34375 C 80.9306 % 2.34 C
41 10-02-2014 00:00:00 3.38819 C 87.2500 % 1.48 C
42 11-02-2014 00:00:00 5.41354 C 82.3819 % 2.66 C
43 12-02-2014 00:00:00 5.44028 C 81.1319 % 2.47 C
44 13-02-2014 00:00:00 5.71771 C 88.4479 % 3.96 C
45 14-02-2014 00:00:00 5.64722 C 85.6979 % 3.44 C
46 15-02-2014 00:00:00 9.70669 C 79.3415 % 6.31 C
47 16-02-2014 00:00:00 7.36493 C 80.5694 % 4.25 C
48 17-02-2014 00:00:00 3.59861 C 91.7118 % 2.38 C
49 18-02-2014 00:00:00 3.38715 C 94.0590 % 2.52 C
50 19-02-2014 00:00:00 7.825 C 84.9722 % 5.46 C
Sensor: Nr:Datum:Temp:Feuchte:Taupunkt:
Aussen-T/F 51 20-02-2014 00:00:00 8.68958 C 82.6215 % 5.9 C
52 21-02-2014 00:00:00 7.64062 C 84.5451 % 5.21 C
53 22-02-2014 00:00:00 4.99861 C 87.1563 % 3.05 C
54 23-02-2014 00:00:00 5.94204 C 83.6694 % 3.39 C
55 24-02-2014 00:00:00 5.86389 C 80.9444 % 2.85 C
56 25-02-2014 00:00:00 6.68681 C 82.1910 % 3.87 C
57 26-02-2014 00:00:00 8.58182 C 81.5382 % 5.61 C
58 27-02-2014 00:00:00 5.86275 C 84.1961 % 3.41 C
59 28-02-2014 00:00:00 6.2146 C 87.8248 % 4.35 C
60 01-03-2014 00:00:00 5.44375 C 88.4410 % 3.69 C
61 02-03-2014 00:00:00 3.55069 C 87.5208 % 1.68 C
62 03-03-2014 00:00:00 5.27743 C 86.6458 % 3.24 C
63 04-03-2014 00:00:00 4.21701 C 86.7118 % 2.2 C
64 05-03-2014 00:00:00 4.68235 C 86.5059 % 2.63 C
65 06-03-2014 00:00:00 3.87951 C 89.4306 % 2.3 C
66 07-03-2014 00:00:00 6.23037 C 80.7383 % 3.17 C
67 08-03-2014 00:00:00 7.3847 C 80.0427 % 4.18 C
68 09-03-2014 00:00:00 7.27263 C 76.4772 % 3.42 C
69 10-03-2014 00:00:00 7.44444 C 75.5035 % 3.41 C
70 11-03-2014 00:00:00 8.4184 C 78.6424 % 4.93 C
71 12-03-2014 00:00:00 9.07812 C 74.1354 % 4.72 C
72 13-03-2014 00:00:00 8.16007 C 73.3681 % 3.69 C
73 14-03-2014 00:00:00 7.91944 C 76.8993 % 4.12 C
74 15-03-2014 00:00:00 8.97326 C 77.3021 % 5.22 C
75 16-03-2014 00:00:00 11.50486 C 77.2500 % 7.67 C
Sensor: Nr:Datum:Temp:Feuchte:Taupunkt:
Aussen-T/F 76 17-03-2014 00:00:00 10.27882 C 81.5486 % 7.27 C
77 18-03-2014 00:00:00 9.4066 C 83.2882 % 6.72 C
78 19-03-2014 00:00:00 12.2875 C 70.5521 % 7.1 C
79 20-03-2014 00:00:00 12.49333 C 67.2772 % 6.6 C
80 21-03-2014 00:00:00 13.1375 C 66.5069 % 7.05 C
81 22-03-2014 00:00:00 8.65208 C 83.0799 % 5.95 C
82 23-03-2014 00:00:00 6.03507 C 81.4861 % 3.11 C
83 24-03-2014 00:00:00 5.42632 C 80.7404 % 2.39 C
84 25-03-2014 00:00:00 4.1625 C 82.4271 % 1.44 C
85 26-03-2014 00:00:00 4.56076 C 78.8125 % 1.21 C
86 27-03-2014 00:00:00 8.14604 C 73.6475 % 3.73 C
87 28-03-2014 00:00:00 10.60972 C 66.4167 % 4.62 C
88 29-03-2014 00:00:00 10.34963 C 70.5809 % 5.24 C
89 30-03-2014 00:00:00 9.15619 C 76.1429 % 5.18 C
90 31-03-2014 00:00:00 12.96562 C 65.8924 % 6.75 C
91 01-04-2014 00:00:00 13.77519 C 67.7366 % 7.92 C
92 02-04-2014 00:00:00 13.90458 C 68.9754 % 8.31 C
93 03-04-2014 00:00:00 12.54324 C 77.5811 % 8.74 C
94 04-04-2014 00:00:00 14.95971 C 74.9173 % 10.55 C
95 05-04-2014 00:00:00 13.00531 C 86.2612 % 10.77 C
96 06-04-2014 00:00:00 11.67782 C 83.0879 % 8.91 C
97 07-04-2014 00:00:00 15.95041 C 75.4713 % 11.62 C
98 08-04-2014 00:00:00 12.18521 C 67.1585 % 6.28 C
99 09-04-2014 00:00:00 9.27426 C 75.9154 % 5.25 C
100 10-04-2014 00:00:00 10.31543 C 77.0864 % 6.48 C
Sensor: Nr:Datum:Temp:Feuchte:Taupunkt:
Aussen-T/F 101 11-04-2014 00:00:00 14.56849 C 72.5000 % 9.69 C
102 12-04-2014 00:00:00 12.65368 C 70.8982 % 7.52 C
103 13-04-2014 00:00:00 11.60669 C 71.0599 % 6.55 C
104 14-04-2014 00:00:00 9.7593 C 71.2491 % 4.81 C
105 15-04-2014 00:00:00 7.10171 C 73.7991 % 2.75 C
106 16-04-2014 00:00:00 12.97192 C 49.4521 % 2.65 C
107 17-04-2014 00:00:00 9.85313 C 63.3021 % 3.22 C
108 18-04-2014 00:00:00 10.72049 C 64.8750 % 4.39 C
109 19-04-2014 00:00:00 10.82049 C 71.8993 % 5.96 C
110 20-04-2014 00:00:00 14.91825 C 70.5509 % 9.62 C
111 21-04-2014 00:00:00 12.49479 C 77.9896 % 8.77 C
112 22-04-2014 00:00:00 12.82847 C 85.6076 % 10.48 C
113 23-04-2014 00:00:00 13.43958 C 81.1771 % 10.28 C
114 24-04-2014 00:00:00 15.42535 C 79.0035 % 11.8 C
115 25-04-2014 00:00:00 16.71562 C 74.1319 % 12.09 C
116 26-04-2014 00:00:00 15.2 C 74.7604 % 10.75 C
117 27-04-2014 00:00:00 13.07674 C 81.7986 % 10.04 C
118 28-04-2014 00:00:00 12.80243 C 79.8715 % 9.42 C
119 29-04-2014 00:00:00 13.43403 C 90.3056 % 11.88 C
120 30-04-2014 00:00:00 14.53507 C 84.7500 % 12 C
121 01-05-2014 00:00:00 14.73611 C 81.3611 % 11.58 C
122 02-05-2014 00:00:00 11.71319 C 86.6736 % 9.57 C
123 03-05-2014 00:00:00 10.92708 C 61.0069 % 3.71 C
124 04-05-2014 00:00:00 9.61042 C 68.0590 % 4.02 C
125 05-05-2014 00:00:00 12.60069 C 67.5521 % 6.76 C
Sensor: Nr:Datum:Temp:Feuchte:Taupunkt:
Aussen-T/F 126 06-05-2014 00:00:00 13.72083 C 74.2778 % 9.23 C
127 07-05-2014 00:00:00 13.05764 C 84.9931 % 10.6 C
128 08-05-2014 00:00:00 12.32847 C 84.6146 % 9.81 C
129 09-05-2014 00:00:00 15.33403 C 71.0833 % 10.13 C
130 10-05-2014 00:00:00 12.40903 C 81.6528 % 9.36 C
131 11-05-2014 00:00:00 11.45764 C 80.1667 % 8.16 C
132 12-05-2014 00:00:00 11.1941 C 74.9167 % 6.92 C
133 13-05-2014 00:00:00 10.30729 C 85.3368 % 7.96 C
134 14-05-2014 00:00:00 10.63542 C 76.9514 % 6.77 C
135 15-05-2014 00:00:00 10.00382 C 80.4757 % 6.8 C
136 16-05-2014 00:00:00 13.25347 C 73.1250 % 8.55 C
137 17-05-2014 00:00:00 14.22292 C 71.7500 % 9.2 C
138 18-05-2014 00:00:00 15.4809 C 74.3021 % 10.93 C
139 19-05-2014 00:00:00 17.57188 C 70.6944 % 12.19 C
140 20-05-2014 00:00:00 19.46562 C 67.3681 % 13.26 C
141 21-05-2014 00:00:00 20.29792 C 68.1181 % 14.23 C
142 22-05-2014 00:00:00 20.21806 C 65.7465 % 13.61 C
143 23-05-2014 00:00:00 15.52639 C 89.6667 % 13.84 C
144 24-05-2014 00:00:00 14.72993 C 81.1514 % 11.53 C
145 25-05-2014 00:00:00 15.25071 C 74.9149 % 10.83 C
146 26-05-2014 00:00:00 16.8625 C 80.3056 % 13.45 C
147 27-05-2014 00:00:00 15.19431 C 94.7346 % 14.36 C
148 28-05-2014 00:00:00 14.58118 C 88.4000 % 12.69 C
149 29-05-2014 00:00:00 13.44653 C 87.1042 % 11.35 C
150 30-05-2014 00:00:00 13.2316 C 70.4167 % 7.97 C
Sensor: Nr:Datum:Temp:Feuchte:Taupunkt:
Aussen-T/F 151 31-05-2014 00:00:00 13.40382 C 74.2639 % 8.92 C
152 01-06-2014 00:00:00 15.49273 C 69.6545 % 9.98 C
153 02-06-2014 00:00:00 15.88943 C 67.9715 % 9.99 C
154 03-06-2014 00:00:00 15.78662 C 74.8627 % 11.34 C
155 04-06-2014 00:00:00 14.95388 C 86.4155 % 12.71 C
156 05-06-2014 00:00:00 14.55765 C 67.7687 % 8.68 C
157 06-06-2014 00:00:00 17.20312 C 67.7778 % 11.2 C
158 07-06-2014 00:00:00 20.77257 C 72.3750 % 15.62 C
159 08-06-2014 00:00:00 24.09514 C 70.7431 % 18.45 C
160 09-06-2014 00:00:00 25.74583 C 69.9583 % 19.85 C
161 10-06-2014 00:00:00 23.66632 C 70.6389 % 18.01 C
162 11-06-2014 00:00:00 20.10803 C 81.3175 % 16.81 C
163 12-06-2014 00:00:00 19.97431 C 66.4583 % 13.54 C
164 13-06-2014 00:00:00 18.37014 C 68.1597 % 12.4 C
165 14-06-2014 00:00:00 17.27465 C 65.5104 % 10.76 C
166 15-06-2014 00:00:00 16.86944 C 67.1875 % 10.75 C
167 16-06-2014 00:00:00 15.61944 C 74.7396 % 11.15 C
168 17-06-2014 00:00:00 17.41354 C 66.8819 % 11.2 C
169 18-06-2014 00:00:00 17.76319 C 71.4931 % 12.54 C
170 19-06-2014 00:00:00 15.70791 C 75.5252 % 11.4 C
171 20-06-2014 00:00:00 15.64143 C 71.1667 % 10.44 C
172 21-06-2014 00:00:00 16.62118 C 65.5903 % 10.15 C
173 22-06-2014 00:00:00 16.62782 C 66.3415 % 10.33 C
174 23-06-2014 00:00:00 17.14792 C 65.1910 % 10.56 C
175 24-06-2014 00:00:00 16.64978 C 71.6277 % 11.5 C
Sensor: Nr:Datum:Temp:Feuchte:Taupunkt:
Aussen-T/F 176 25-06-2014 00:00:00 17.29096 C 56.5426 % 8.58 C
177 26-06-2014 00:00:00 16.18958 C 64.0764 % 9.4 C
178 27-06-2014 00:00:00 17.54167 C 67.2604 % 11.41 C
179 28-06-2014 00:00:00 16.28043 C 87.3950 % 14.18 C
180 29-06-2014 00:00:00 14.67192 C 93.3251 % 13.61 C
181 30-06-2014 00:00:00 16.05247 C 75.2167 % 11.67 C
182 01-07-2014 00:00:00 15.65035 C 70.2917 % 10.26 C
183 02-07-2014 00:00:00 16.86146 C 65.5313 % 10.37 C
184 03-07-2014 00:00:00 19.78889 C 59.6493 % 11.72 C
185 04-07-2014 00:00:00 20.36076 C 67.5382 % 14.16 C
186 05-07-2014 00:00:00 20.4 C 77.3439 % 16.3 C
187 06-07-2014 00:00:00 23.48509 C 69.7818 % 17.65 C
188 07-07-2014 00:00:00 19.86367 C 64.8202 % 13.05 C
189 08-07-2014 00:00:00 15.57633 C 89.8898 % 13.92 C
190 09-07-2014 00:00:00 12.97083 C 95.1667 % 12.22 C
191 10-07-2014 00:00:00 17.68292 C 90.2000 % 16.06 C
192 11-07-2014 00:00:00 18.42369 C 88.6466 % 16.51 C
193 12-07-2014 00:00:00 18.68363 C 88.1018 % 16.67 C
194 13-07-2014 00:00:00 19.06941 C 85.5922 % 16.6 C
195 14-07-2014 00:00:00 19.60206 C 79.5021 % 15.96 C
196 15-07-2014 00:00:00 21.3216 C 70.6901 % 15.78 C
197 16-07-2014 00:00:00 21.88732 C 74.8829 % 17.23 C
198 17-07-2014 00:00:00 23.77903 C 70.2742 % 18.04 C
199 18-07-2014 00:00:00 24.87935 C 65.5097 % 17.97 C
200 19-07-2014 00:00:00 27.76989 C 58.4086 % 18.86 C
Sensor: Nr:Datum:Temp:Feuchte:Taupunkt:
Aussen-T/F 201 20-07-2014 00:00:00 22.68715 C 80.6840 % 19.19 C
202 21-07-2014 00:00:00 20.29965 C 91.0660 % 18.79 C
203 22-07-2014 00:00:00 23.6856 C 82.0494 % 20.44 C
204 23-07-2014 00:00:00 23.11788 C 73.8869 % 18.2 C
205 24-07-2014 00:00:00 20.63922 C 73.5020 % 15.74 C
206 25-07-2014 00:00:00 21.8193 C 72.9825 % 16.76 C
207 26-07-2014 00:00:00 21.92 C 74.3097 % 17.14 C
208 27-07-2014 00:00:00 19.66694 C 83.9339 % 16.88 C
209 28-07-2014 00:00:00 22.3284 C 78.8580 % 18.48 C
210 29-07-2014 00:00:00 19.88194 C 95.8125 % 19.19 C
211 30-07-2014 00:00:00 19.93194 C 85.4097 % 17.41 C
212 31-07-2014 00:00:00 20.20645 C 77.0896 % 16.06 C
213 01-08-2014 00:00:00 20.08438 C 81.7153 % 16.86 C
214 02-08-2014 00:00:00 20.10868 C 84.8264 % 17.48 C
215 03-08-2014 00:00:00 21.3566 C 81.2743 % 18.02 C
216 04-08-2014 00:00:00 19.00347 C 86.5799 % 16.71 C
217 05-08-2014 00:00:00 18.77049 C 82.0208 % 15.64 C
218 06-08-2014 00:00:00 17.59618 C 84.4201 % 14.94 C
219 07-08-2014 00:00:00 18.9934 C 85.7986 % 16.56 C
220 08-08-2014 00:00:00 18.87604 C 89.5625 % 17.12 C
221 09-08-2014 00:00:00 20.16771 C 80.6076 % 16.73 C
222 10-08-2014 00:00:00 19.0125 C 90.0208 % 17.34 C
223 11-08-2014 00:00:00 17.0066 C 81.0000 % 13.72 C
224 12-08-2014 00:00:00 17.62431 C 72.1944 % 12.56 C
225 13-08-2014 00:00:00 15.97674 C 89.6528 % 14.28 C
Sensor: Nr:Datum:Temp:Feuchte:Taupunkt:
Aussen-T/F 226 14-08-2014 00:00:00 16.15426 C 84.3298 % 13.51 C
227 15-08-2014 00:00:00 14.48638 C 92.1720 % 13.23 C
228 16-08-2014 00:00:00 15.13439 C 89.3930 % 13.4 C
229 17-08-2014 00:00:00 16.14062 C 77.5243 % 12.21 C
230 18-08-2014 00:00:00 16.30417 C 74.5313 % 11.77 C
231 19-08-2014 00:00:00 13.79653 C 83.4410 % 11.04 C
232 20-08-2014 00:00:00 12.68681 C 83.0799 % 9.89 C
233 21-08-2014 00:00:00 12.84653 C 82.9965 % 10.03 C
234 22-08-2014 00:00:00 14.04062 C 78.5000 % 10.36 C
235 23-08-2014 00:00:00 14.26875 C 83.3194 % 11.48 C
236 24-08-2014 00:00:00 11.58993 C 93.2465 % 10.54 C
237 25-08-2014 00:00:00 13.23854 C 93.7743 % 12.26 C
238 26-08-2014 00:00:00 14.79479 C 96.8681 % 14.3 C
239 27-08-2014 00:00:00 15.38741 C 91.3237 % 13.98 C
240 28-08-2014 00:00:00 15.84062 C 93.0556 % 14.72 C
241 29-08-2014 00:00:00 18.05278 C 88.6979 % 16.16 C
242 30-08-2014 00:00:00 16.23299 C 90.9965 % 14.76 C
243 31-08-2014 00:00:00 14.70069 C 92.8125 % 13.55 C
244 01-09-2014 00:00:00 14.60556 C 91.4896 % 13.24 C
245 02-09-2014 00:00:00 14.6191 C 90.6771 % 13.11 C
246 03-09-2014 00:00:00 15.03299 C 89.9549 % 13.4 C
247 04-09-2014 00:00:00 16.74028 C 89.6910 % 15.04 C
248 05-09-2014 00:00:00 18.15903 C 91.3819 % 16.73 C
249 06-09-2014 00:00:00 17.4559 C 92.7604 % 16.27 C
250 07-09-2014 00:00:00 18.08889 C 88.1264 % 16.09 C
Sensor: Nr:Datum:Temp:Feuchte:Taupunkt:
Aussen-T/F 251 08-09-2014 00:00:00 17.83403 C 84.0833 % 15.11 C
252 09-09-2014 00:00:00 15.64965 C 81.4410 % 12.48 C
253 10-09-2014 00:00:00 14.27882 C 83.4132 % 11.51 C
254 11-09-2014 00:00:00 14.96111 C 83.0903 % 12.12 C
255 12-09-2014 00:00:00 14.12153 C 84.7257 % 11.59 C
256 13-09-2014 00:00:00 16.12118 C 88.7743 % 14.27 C
257 14-09-2014 00:00:00 16.65196 C 88.0641 % 14.67 C
258 15-09-2014 00:00:00 16.079 C 91.5516 % 14.7 C
259 16-09-2014 00:00:00 16.93264 C 90.1458 % 15.31 C
260 17-09-2014 00:00:00 16.05139 C 92.2118 % 14.79 C
261 18-09-2014 00:00:00 17.4875 C 95.6215 % 16.78 C
262 19-09-2014 00:00:00 18.38993 C 95.2708 % 17.62 C
263 20-09-2014 00:00:00 17.14931 C 96.4583 % 16.58 C
264 21-09-2014 00:00:00 15.46146 C 95.3090 % 14.71 C
265 22-09-2014 00:00:00 12.53194 C 86.3194 % 10.31 C
266 23-09-2014 00:00:00 9.91146 C 90.8993 % 8.5 C
267 24-09-2014 00:00:00 11.10451 C 89.8056 % 9.5 C
268 25-09-2014 00:00:00 13.67917 C 85.6806 % 11.33 C
269 26-09-2014 00:00:00 14.24896 C 88.9653 % 12.46 C
270 27-09-2014 00:00:00 15.59965 C 91.2743 % 14.18 C
271 28-09-2014 00:00:00 14.22743 C 95.0660 % 13.45 C
272 29-09-2014 00:00:00 15.41493 C 94.8472 % 14.59 C
273 30-09-2014 00:00:00 16.83438 C 93.1875 % 15.73 C
274 01-10-2014 00:00:00 15.87778 C 94.6389 % 15.02 C
275 02-10-2014 00:00:00 14.35799 C 95.7326 % 13.69 C
Sensor: Nr:Datum:Temp:Feuchte:Taupunkt:
Aussen-T/F 276 03-10-2014 00:00:00 13.73785 C 95.4063 % 13.02 C
277 04-10-2014 00:00:00 12.86979 C 93.2014 % 11.8 C
278 05-10-2014 00:00:00 12.94097 C 94.0799 % 12.01 C
279 06-10-2014 00:00:00 14.3 C 90.3750 % 12.75 C
280 07-10-2014 00:00:00 13.71806 C 92.2986 % 12.49 C
281 08-10-2014 00:00:00 13.3 C 97.6069 % 12.93 C
282 09-10-2014 00:00:00 15.17173 C 97.6859 % 14.81 C
283 10-10-2014 00:00:00 14.20902 C 96.4000 % 13.64 C
284 11-10-2014 00:00:00 14.77847 C 96.0347 % 14.15 C
285 12-10-2014 00:00:00 12.52744 C 95.6029 % 11.84 C
286 13-10-2014 00:00:00 14.72014 C 96.7569 % 14.21 C
287 14-10-2014 00:00:00 12.54495 C 95.1847 % 11.8 C
288 15-10-2014 00:00:00 11.65639 C 95.3910 % 10.94 C
289 16-10-2014 00:00:00 14.02682 C 94.9818 % 13.24 C
290 17-10-2014 00:00:00 14.05977 C 93.7854 % 13.07 C
291 18-10-2014 00:00:00 12.49887 C 97.7283 % 12.15 C
292 19-10-2014 00:00:00 15.09722 C 92.7188 % 13.93 C
293 20-10-2014 00:00:00 15.06015 C 83.9885 % 12.38 C
294 21-10-2014 00:00:00 11.78491 C 85.1649 % 9.38 C
295 22-10-2014 00:00:00 8.88438 C 85.2674 % 6.55 C
296 23-10-2014 00:00:00 10.3816 C 87.9444 % 8.47 C
297 24-10-2014 00:00:00 10.59097 C 90.2951 % 9.07 C
298 25-10-2014 00:00:00 11.53056 C 94.5417 % 10.69 C
299 26-10-2014 00:00:00 11.35625 C 95.5278 % 10.67 C
300 27-10-2014 00:00:00 9.22813 C 96.0903 % 8.64 C
Sensor: Nr:Datum:Temp:Feuchte:Taupunkt:
Aussen-T/F 301 28-10-2014 00:00:00 7.93681 C 88.3750 % 6.14 C
302 29-10-2014 00:00:00 9.50556 C 91.5347 % 8.2 C
303 30-10-2014 00:00:00 12.10625 C 96.8819 % 11.63 C
304 31-10-2014 00:00:00 12.05903 C 97.0694 % 11.61 C
305 01-11-2014 00:00:00 10.92674 C 98.2674 % 10.66 C
306 02-11-2014 00:00:00 11.24448 C 97.2776 % 10.83 C
307 03-11-2014 00:00:00 13.84028 C 90.1806 % 12.26 C
308 04-11-2014 00:00:00 11.22049 C 96.5521 % 10.69 C
309 05-11-2014 00:00:00 9.33229 C 95.2257 % 8.61 C
310 06-11-2014 00:00:00 6.59514 C 92.6250 % 5.49 C
311 07-11-2014 00:00:00 5.60208 C 94.8160 % 4.84 C
312 08-11-2014 00:00:00 8.8941 C 91.4340 % 7.58 C
313 09-11-2014 00:00:00 6.62257 C 96.8125 % 6.15 C
314 10-11-2014 00:00:00 8.76389 C 96.3715 % 8.22 C
315 11-11-2014 00:00:00 8.47553 C 95.0106 % 7.72 C
316 12-11-2014 00:00:00 9.50104 C 95.2604 % 8.78 C
317 13-11-2014 00:00:00 9.66736 C 96.6806 % 9.17 C
318 14-11-2014 00:00:00 10.60174 C 90.0313 % 9.04 C
319 15-11-2014 00:00:00 9.75938 C 94.5347 % 8.93 C
320 16-11-2014 00:00:00 8.75674 C 97.4468 % 8.38 C
321 17-11-2014 00:00:00 8.71146 C 97.5799 % 8.35 C
322 18-11-2014 00:00:00 8.62491 C 96.7473 % 8.14 C
323 19-11-2014 00:00:00 8.07465 C 95.9514 % 7.47 C
324 20-11-2014 00:00:00 6.45486 C 94.4826 % 5.63 C
325 21-11-2014 00:00:00 5.36458 C 95.0799 % 4.64 C
Sensor: Nr:Datum:Temp:Feuchte:Taupunkt:
Aussen-T/F 326 22-11-2014 00:00:00 5.83576 C 95.7569 % 5.21 C
327 23-11-2014 00:00:00 6.30104 C 96.9931 % 5.86 C
328 24-11-2014 00:00:00 7.36679 C 94.6236 % 6.56 C
329 25-11-2014 00:00:00 3.04781 C 97.7769 % 2.73 C
330 26-11-2014 00:00:00 5.29848 C 89.8182 % 3.77 C
331 27-11-2014 00:00:00 5.85447 C 92.9300 % 4.8 C
332 28-11-2014 00:00:00 5.42203 C 91.8771 % 4.21 C
333 29-11-2014 00:00:00 4.46596 C 89.4070 % 2.88 C
334 30-11-2014 00:00:00 3.88993 C 91.8229 % 2.69 C
335 01-12-2014 00:00:00 3.33299 C 91.1840 % 2.04 C
336 02-12-2014 00:00:00 1.63731 C 91.3192 % 0.38 C
337 03-12-2014 00:00:00 1.74095 C 94.0216 % 0.88 C
338 04-12-2014 00:00:00 2.32917 C 92.6806 % 1.27 C
339 05-12-2014 00:00:00 4.15278 C 92.7500 % 3.09 C
340 06-12-2014 00:00:00 4.51389 C 95.0174 % 3.79 C
341 07-12-2014 00:00:00 4.32049 C 92.1597 % 3.16 C
342 08-12-2014 00:00:00 3.10625 C 93.1458 % 2.11 C
343 09-12-2014 00:00:00 2.57569 C 96.3472 % 2.05 C
344 10-12-2014 00:00:00 4.42118 C 89.8993 % 2.91 C
345 11-12-2014 00:00:00 6.26736 C 89.8125 % 4.72 C
346 12-12-2014 00:00:00 9.07951 C 85.8507 % 6.84 C
347 13-12-2014 00:00:00 4.45625 C 96.4618 % 3.94 C
348 14-12-2014 00:00:00 2.59063 C 96.5868 % 2.1 C
349 15-12-2014 00:00:00 3.42986 C 93.8646 % 2.54 C
350 16-12-2014 00:00:00 6.12049 C 91.8542 % 4.9 C
Sensor: Nr:Datum:Temp:Feuchte:Taupunkt:
Aussen-T/F 351 17-12-2014 00:00:00 6.08021 C 92.4167 % 4.95 C
352 18-12-2014 00:00:00 11.91597 C 90.3021 % 10.38 C
353 19-12-2014 00:00:00 10.45243 C 86.8194 % 8.35 C
354 20-12-2014 00:00:00 5.90764 C 85.4618 % 3.66 C
355 21-12-2014 00:00:00 6.41042 C 88.0833 % 4.59 C
356 22-12-2014 00:00:00 8.375 C 87.5139 % 6.43 C
357 23-12-2014 00:00:00 10.04444 C 85.6222 % 7.75 C
358 24-12-2014 00:00:00 8.3214 C 86.1158 % 6.14 C
359 25-12-2014 00:00:00 5.2875 C 85.6027 % 3.08 C
360 26-12-2014 00:00:00 2.31469 C 97.1259 % 1.91 C
361 27-12-2014 00:00:00 1.46649 C 94.8796 % 0.74 C
362 28-12-2014 00:00:00 -3.09591 C 79.8636 % -6.07 C
363 29-12-2014 00:00:00 -0.46157 C 89.7388 % -1.94 C
364 30-12-2014 00:00:00 2.6765 C 92.5574 % 1.59 C
365 31-12-2014 00:00:00 2.46053 C 93.8487 % 1.57 C
366 01-01-2015 00:00:00 1.89397 C 96.4741 % 1.39 C
367 02-01-2015 00:00:00 3.6411 C 89.1575 % 2.03 C
368 03-01-2015 00:00:00 1.94125 C 94.7000 % 1.18 C
369 04-01-2015 00:00:00 2.94172 C 93.6503 % 2.02 C
370 05-01-2015 00:00:00 -0.02447 C 95.0904 % -0.71 C
371 06-01-2015 00:00:00 0.48846 C 92.6923 % -0.55 C
372 07-01-2015 00:00:00 2.52604 C 92.4113 % 1.42 C
373 08-01-2015 00:00:00 6.62222 C 92.6632 % 5.52 C
374 09-01-2015 00:00:00 9.27879 C 85.8977 % 7.04 C
375 10-01-2015 00:00:00 13.56872 C 83.0051 % 10.74 C
Sensor: Nr:Datum:Temp:Feuchte:Taupunkt:
Aussen-T/F 376 11-01-2015 00:00:00 5.45068 C 76.2432 % 1.61 C
377 12-01-2015 00:00:00 6.91962 C 83.3811 % 4.3 C
378 13-01-2015 00:00:00 10.09231 C 75.4163 % 5.95 C
379 14-01-2015 00:00:00 5.9911 C 84.6525 % 3.61 C
380 15-01-2015 00:00:00 10.14352 C 76.1574 % 6.14 C
381 16-01-2015 00:00:00 6.66424 C 88.4201 % 4.89 C
382 17-01-2015 00:00:00 3.35174 C 91.5660 % 2.11 C
383 18-01-2015 00:00:00 1.91111 C 84.4965 % -0.42 C
384 19-01-2015 00:00:00 0.89028 C 89.3889 % -0.65 C
385 20-01-2015 00:00:00 0.86285 C 90.8576 % -0.46 C
386 21-01-2015 00:00:00 -0.0414 C 88.7123 % -1.68 C
387 22-01-2015 00:00:00 1.45625 C 84.8438 % -0.81 C
388 23-01-2015 00:00:00 1.33299 C 89.6736 % -0.17 C
389 24-01-2015 00:00:00 1.04056 C 91.7189 % -0.15 C
390 25-01-2015 00:00:00 2.19444 C 94.2396 % 1.37 C
391 26-01-2015 00:00:00 3.05694 C 95.0069 % 2.34 C
392 27-01-2015 00:00:00 3.85208 C 93.6806 % 2.93 C
393 28-01-2015 00:00:00 4.1184 C 90.7604 % 2.75 C
394 29-01-2015 00:00:00 3.03715 C 88.2431 % 1.29 C
395 30-01-2015 00:00:00 1.92569 C 90.3715 % 0.52 C
396 31-01-2015 00:00:00 2.07143 C 87.5437 % 0.23 C
397 01-02-2015 00:00:00 2.04274 C 93.0565 % 1.04 C
398 02-02-2015 00:00:00 2.35794 C 89.0635 % 0.75 C
399 03-02-2015 00:00:00 0.88769 C 90.6462 % -0.46 C
400 04-02-2015 00:00:00 0.04848 C 87.0379 % -1.84 C
Sensor: Nr:Datum:Temp:Feuchte:Taupunkt:
Aussen-T/F 401 05-02-2015 00:00:00 -1.86778 C 83.7333 % -4.25 C
402 06-02-2015 00:00:00 0.42153 C 69.7431 % -4.45 C
403 07-02-2015 00:00:00 -0.6316 C 80.7569 % -3.52 C
404 08-02-2015 00:00:00 3.19444 C 81.6701 % 0.37 C
405 09-02-2015 00:00:00 4.06597 C 90.9549 % 2.73 C
406 10-02-2015 00:00:00 4.96528 C 91.7188 % 3.73 C
407 11-02-2015 00:00:00 3.82917 C 87.1771 % 1.9 C
408 12-02-2015 00:00:00 2.75556 C 89.3854 % 1.19 C
409 13-02-2015 00:00:00 2.27396 C 89.2326 % 0.69 C
410 14-02-2015 00:00:00 3.73438 C 86.5382 % 1.7 C
411 15-02-2015 00:00:00 1.72778 C 89.3542 % 0.17 C
412 16-02-2015 00:00:00 1.82744 C 88.4874 % 0.13 C
413 17-02-2015 00:00:00 3.31146 C 88.3646 % 1.58 C
414 18-02-2015 00:00:00 4.09479 C 89.1493 % 2.47 C
415 19-02-2015 00:00:00 0.94861 C 88.1007 % -0.79 C
416 20-02-2015 00:00:00 6.96389 C 77.7326 % 3.35 C
417 21-02-2015 00:00:00 5.27535 C 85.5972 % 3.06 C
418 22-02-2015 00:00:00 3.72083 C 82.6285 % 1.05 C
419 23-02-2015 00:00:00 3.46944 C 89.0000 % 1.83 C
420 24-02-2015 00:00:00 4.88611 C 84.9757 % 2.58 C
421 25-02-2015 00:00:00 4.28403 C 89.1215 % 2.65 C
422 26-02-2015 00:00:00 6.06354 C 89.7708 % 4.51 C
423 27-02-2015 00:00:00 5.01736 C 91.6632 % 3.78 C
424 28-02-2015 00:00:00 2.37187 C 85.8854 % 0.26 C
425 01-03-2015 00:00:00 7.71493 C 80.8125 % 4.63 C
Sensor: Nr:Datum:Temp:Feuchte:Taupunkt:
Aussen-T/F 426 02-03-2015 00:00:00 6.14653 C 79.5556 % 2.88 C
427 03-03-2015 00:00:00 5.52812 C 78.2778 % 2.05 C
428 04-03-2015 00:00:00 4.51771 C 82.8576 % 1.86 C
429 05-03-2015 00:00:00 5.08681 C 83.0556 % 2.45 C
430 06-03-2015 00:00:00 4.14931 C 84.0660 % 1.71 C
431 07-03-2015 00:00:00 4.96007 C 81.3993 % 2.05 C
432 08-03-2015 00:00:00 6.05625 C 83.0174 % 3.4 C
433 09-03-2015 00:00:00 7.81354 C 84.5938 % 5.38 C
434 10-03-2015 00:00:00 5.56319 C 96.8542 % 5.1 C
435 11-03-2015 00:00:00 4.39549 C 87.3090 % 2.48 C
436 12-03-2015 00:00:00 3.92222 C 82.5382 % 1.23 C
437 13-03-2015 00:00:00 4.14514 C 76.4688 % 0.39 C
438 14-03-2015 00:00:00 4.55451 C 82.5729 % 1.85 C
439 15-03-2015 00:00:00 4.61042 C 89.4132 % 3.02 C
440 16-03-2015 00:00:00 4.68368 C 86.6736 % 2.66 C
441 17-03-2015 00:00:00 7.26632 C 81.9722 % 4.4 C
442 18-03-2015 00:00:00 9.08924 C 80.6424 % 5.94 C
443 19-03-2015 00:00:00 7.62431 C 91.9132 % 6.4 C
444 20-03-2015 00:00:00 8.07465 C 82.3889 % 5.26 C
445 21-03-2015 00:00:00 5.69201 C 90.0000 % 4.18 C
446 22-03-2015 00:00:00 5.19792 C 82.4965 % 2.47 C
447 23-03-2015 00:00:00 3.85521 C 84.2118 % 1.44 C
448 24-03-2015 00:00:00 6.94167 C 81.1181 % 3.93 C
449 25-03-2015 00:00:00 7.68056 C 84.0729 % 5.17 C
450 26-03-2015 00:00:00 7.17257 C 77.3333 % 3.48 C
Sensor: Nr:Datum:Temp:Feuchte:Taupunkt:
Aussen-T/F 451 27-03-2015 00:00:00 7.64965 C 74.8472 % 3.48 C
452 28-03-2015 00:00:00 8.51667 C 79.0243 % 5.09 C
453 29-03-2015 00:00:00 11.63659 C 83.7029 % 8.98 C
454 30-03-2015 00:00:00 8.21597 C 71.2222 % 3.32 C
455 31-03-2015 00:00:00 10.06181 C 74.1771 % 5.68 C
456 01-04-2015 00:00:00 6.38924 C 70.3542 % 1.4 C
457 02-04-2015 00:00:00 6.45868 C 73.6250 % 2.1 C
458 03-04-2015 00:00:00 5.87951 C 71.3819 % 1.11 C
459 04-04-2015 00:00:00 6.24896 C 76.7882 % 2.49 C
460 05-04-2015 00:00:00 5.21354 C 69.6042 % 0.12 C
461 06-04-2015 00:00:00 5.33542 C 76.9201 % 1.62 C
462 07-04-2015 00:00:00 5.98646 C 76.3785 % 2.16 C
463 08-04-2015 00:00:00 8.43776 C 77.5594 % 4.75 C
464 09-04-2015 00:00:00 11.19653 C 77.2118 % 7.36 C
465 10-04-2015 00:00:00 13.22708 C 68.0278 % 7.46 C
466 11-04-2015 00:00:00 12.37118 C 70.6736 % 7.2 C
467 12-04-2015 00:00:00 11.34444 C 70.3090 % 6.14 C
468 13-04-2015 00:00:00 11.50104 C 69.8576 % 6.2 C
469 14-04-2015 00:00:00 13.37778 C 67.0347 % 7.39 C
470 15-04-2015 00:00:00 16.43472 C 63.5799 % 9.51 C
471 16-04-2015 00:00:00 15.04757 C 69.6493 % 9.55 C
472 17-04-2015 00:00:00 11.41736 C 67.7951 % 5.69 C
473 18-04-2015 00:00:00 8.60486 C 64.9931 % 2.41 C
474 19-04-2015 00:00:00 9.50903 C 62.7708 % 2.78 C
475 20-04-2015 00:00:00 12.20312 C 60.9549 % 4.9 C
Sensor: Nr:Datum:Temp:Feuchte:Taupunkt:
Aussen-T/F 476 21-04-2015 00:00:00 13.69549 C 60.5278 % 6.21 C
477 22-04-2015 00:00:00 10.77465 C 69.4826 % 5.42 C
478 23-04-2015 00:00:00 10.84062 C 70.1806 % 5.63 C
479 24-04-2015 00:00:00 13.43403 C 62.6701 % 6.46 C
480 25-04-2015 00:00:00 12.95486 C 81.1250 % 9.8 C
481 26-04-2015 00:00:00 15.34444 C 79.1736 % 11.76 C
482 27-04-2015 00:00:00 10.42014 C 94.5868 % 9.59 C
483 28-04-2015 00:00:00 9.15382 C 73.6910 % 4.71 C
484 29-04-2015 00:00:00 8.3059 C 73.2951 % 3.82 C
485 30-04-2015 00:00:00 9.85764 C 80.8819 % 6.73 C
486 01-05-2015 00:00:00 8.17979 C 82.7700 % 5.43 C
487 02-05-2015 00:00:00 9.88958 C 78.1007 % 6.26 C
488 03-05-2015 00:00:00 13.80469 C 89.9856 % 12.19 C
489 04-05-2015 00:00:00 16.61875 C 81.1319 % 13.37 C
490 05-05-2015 00:00:00 18.45035 C 74.4514 % 13.83 C
491 06-05-2015 00:00:00 13.3566 C 69.4306 % 7.89 C
492 07-05-2015 00:00:00 13.35764 C 65.8646 % 7.12 C
493 08-05-2015 00:00:00 14.46632 C 68.7951 % 8.81 C
494 09-05-2015 00:00:00 15.2441 C 75.9410 % 11.03 C
495 10-05-2015 00:00:00 14.78229 C 75.1944 % 10.44 C
496 11-05-2015 00:00:00 17.12812 C 73.8611 % 12.43 C
497 12-05-2015 00:00:00 18.0309 C 74.6181 % 13.46 C
498 13-05-2015 00:00:00 14.45208 C 67.5590 % 8.53 C
499 14-05-2015 00:00:00 14.14351 C 72.7298 % 9.33 C
500 15-05-2015 00:00:00 15.02882 C 77.6215 % 11.15 C
Sensor: Nr:Datum:Temp:Feuchte:Taupunkt:
Aussen-T/F 501 16-05-2015 00:00:00 12.01528 C 78.7569 % 8.45 C
502 17-05-2015 00:00:00 14.18924 C 70.3750 % 8.88 C
503 18-05-2015 00:00:00 15.27535 C 65.6250 % 8.88 C
504 19-05-2015 00:00:00 13.64941 C 60.6403 % 6.19 C
505 20-05-2015 00:00:00 11.71144 C 70.5166 % 6.54 C
506 21-05-2015 00:00:00 11.60764 C 69.7118 % 6.27 C
507 22-05-2015 00:00:00 15.74722 C 61.0868 % 8.27 C
508 23-05-2015 00:00:00 15.85278 C 71.0625 % 10.62 C
509 24-05-2015 00:00:00 17.02887 C 75.7852 % 12.73 C
510 25-05-2015 00:00:00 13.82968 C 88.0452 % 11.89 C
511 26-05-2015 00:00:00 11.87604 C 75.6736 % 7.72 C
512 27-05-2015 00:00:00 11.63958 C 70.3194 % 6.43 C
513 28-05-2015 00:00:00 14.21944 C 69.5104 % 8.73 C
514 29-05-2015 00:00:00 13.27367 C 76.0712 % 9.15 C
515 30-05-2015 00:00:00 12.66319 C 71.2188 % 7.59 C
516 31-05-2015 00:00:00 14.50903 C 73.4653 % 9.83 C
517 01-06-2015 00:00:00 14.86667 C 79.3472 % 11.33 C
518 02-06-2015 00:00:00 16.57639 C 73.3056 % 11.78 C
519 03-06-2015 00:00:00 17.74965 C 70.8646 % 12.4 C
520 04-06-2015 00:00:00 18.54896 C 65.3993 % 11.94 C
521 05-06-2015 00:00:00 22.1191 C 67.8681 % 15.91 C
522 06-06-2015 00:00:00 19.94028 C 80.0208 % 16.39 C
523 07-06-2015 00:00:00 18.04306 C 59.8576 % 10.13 C
524 08-06-2015 00:00:00 16.17222 C 63.8056 % 9.32 C
525 09-06-2015 00:00:00 14.94792 C 62.4688 % 7.85 C
Sensor: Nr:Datum:Temp:Feuchte:Taupunkt:
Aussen-T/F 526 10-06-2015 00:00:00 17.10208 C 66.1146 % 10.73 C
527 11-06-2015 00:00:00 19.95895 C 61.7825 % 12.41 C
528 12-06-2015 00:00:00 19.48699 C 78.0855 % 15.57 C
529 13-06-2015 00:00:00 18.63958 C 85.4028 % 16.14 C
530 14-06-2015 00:00:00 19.07708 C 68.7674 % 13.21 C
531 15-06-2015 00:00:00 17.59271 C 74.7535 % 13.06 C
532 16-06-2015 00:00:00 15.68924 C 63.0868 % 8.69 C
533 17-06-2015 00:00:00 15.5816 C 65.6250 % 9.18 C
534 18-06-2015 00:00:00 17.15625 C 75.1736 % 12.73 C
535 19-06-2015 00:00:00 12.7559 C 82.5104 % 9.86 C
536 20-06-2015 00:00:00 13.05547 C 82.0000 % 10.06 C
537 21-06-2015 00:00:00 15.43396 C 84.8358 % 12.9 C
538 22-06-2015 00:00:00 13.19855 C 87.9273 % 11.24 C
539 23-06-2015 00:00:00 11.71206 C 92.2057 % 10.49 C
540 24-06-2015 00:00:00 14.96215 C 81.0417 % 11.74 C
541 25-06-2015 00:00:00 17.94306 C 75.7118 % 13.6 C
542 26-06-2015 00:00:00 19.40139 C 78.2465 % 15.52 C
543 27-06-2015 00:00:00 20.26461 C 74.9877 % 15.69 C
544 28-06-2015 00:00:00 18.39741 C 72.8405 % 13.44 C
545 29-06-2015 00:00:00 23.63875 C 61.7438 % 15.87 C
546 30-06-2015 00:00:00 21.94847 C 63.2710 % 14.65 C
547 01-07-2015 00:00:00 24.13993 C 63.3022 % 16.73 C
548 02-07-2015 00:00:00 26.83474 C 64.8246 % 19.66 C
549 03-07-2015 00:00:00 28.2408 C 65.4400 % 21.14 C
550 04-07-2015 00:00:00 27.77951 C 67.8229 % 21.29 C
Sensor: Nr:Datum:Temp:Feuchte:Taupunkt:
Aussen-T/F 551 05-07-2015 00:00:00 26.75417 C 64.4028 % 19.47 C
552 06-07-2015 00:00:00 23.89674 C 54.1630 % 14.07 C
553 07-07-2015 00:00:00 23.4251 C 64.1833 % 16.27 C
554 08-07-2015 00:00:00 17.62465 C 71.6944 % 12.45 C
555 09-07-2015 00:00:00 16.50669 C 68.3134 % 10.65 C
556 10-07-2015 00:00:00 17.02947 C 57.6175 % 8.61 C
557 11-07-2015 00:00:00 21.24132 C 54.9340 % 11.83 C
558 12-07-2015 00:00:00 19.0157 C 71.3264 % 13.71 C
559 13-07-2015 00:00:00 17.93777 C 85.0638 % 15.39 C
560 14-07-2015 00:00:00 21.06476 C 74.5551 % 16.37 C
561 15-07-2015 00:00:00 21.59368 C 75.8000 % 17.14 C
562 16-07-2015 00:00:00 24.00382 C 71.6667 % 18.57 C
563 17-07-2015 00:00:00 28.34301 C 50.2206 % 16.99 C
564 18-07-2015 00:00:00 23.63602 C 62.5441 % 16.06 C
565 19-07-2015 00:00:00 21.84756 C 77.9451 % 17.83 C
566 20-07-2015 00:00:00 22.02667 C 88.1833 % 19.98 C
567 21-07-2015 00:00:00 26.21048 C 69.2476 % 20.13 C
568 22-07-2015 00:00:00 23.3275 C 74.4857 % 18.53 C
569 23-07-2015 00:00:00 20.60312 C 64.9514 % 13.78 C
570 24-07-2015 00:00:00 21.45543 C 69.6180 % 15.67 C
571 25-07-2015 00:00:00 17.38849 C 77.9048 % 13.5 C
572 26-07-2015 00:00:00 15.82244 C 71.9961 % 10.79 C
573 27-07-2015 00:00:00 17.63472 C 81.2604 % 14.39 C
574 28-07-2015 00:00:00 17.16294 C 63.9825 % 10.3 C
575 29-07-2015 00:00:00 17.78846 C 55.9808 % 8.9 C
Sensor: Nr:Datum:Temp:Feuchte:Taupunkt:
Aussen-T/F 576 30-07-2015 00:00:00 14.2708 C 74.1720 % 9.74 C
577 31-07-2015 00:00:00 16.9314 C 65.0744 % 10.33 C
578 01-08-2015 00:00:00 19.24097 C 59.1319 % 11.07 C
579 02-08-2015 00:00:00 20.84722 C 61.6979 % 13.23 C
580 03-08-2015 00:00:00 23.19217 C 57.6157 % 14.37 C
581 04-08-2015 00:00:00 19.03299 C 81.7396 % 15.84 C
582 05-08-2015 00:00:00 19.79201 C 76.1424 % 15.47 C
583 06-08-2015 00:00:00 24 C 66.2153 % 17.31 C
584 07-08-2015 00:00:00 26.94306 C 61.3715 % 18.88 C
585 08-08-2015 00:00:00 22.82014 C 79.2431 % 19.03 C
586 09-08-2015 00:00:00 21.98785 C 77.7708 % 17.93 C
587 10-08-2015 00:00:00 19.76944 C 83.2465 % 16.85 C
588 11-08-2015 00:00:00 21.91979 C 74.4583 % 17.17 C
589 12-08-2015 00:00:00 23.09896 C 77.4583 % 18.94 C
590 13-08-2015 00:00:00 25.32292 C 70.7535 % 19.63 C
591 14-08-2015 00:00:00 24.17396 C 69.3611 % 18.21 C
592 15-08-2015 00:00:00 20.86319 C 72.4201 % 15.72 C
593 16-08-2015 00:00:00 15.85799 C 89.8924 % 14.2 C
594 17-08-2015 00:00:00 14.78889 C 90.7396 % 13.29 C
595 18-08-2015 00:00:00 15.90625 C 82.9757 % 13.02 C
596 19-08-2015 00:00:00 15.71493 C 78.1458 % 11.92 C
597 20-08-2015 00:00:00 18.10382 C 74.0625 % 13.41 C
598 21-08-2015 00:00:00 18.85764 C 70.1910 % 13.31 C
599 22-08-2015 00:00:00 19.10729 C 64.2708 % 12.21 C
600 23-08-2015 00:00:00 19.89722 C 63.7431 % 12.83 C
Sensor: Nr:Datum:Temp:Feuchte:Taupunkt:
Aussen-T/F 601 24-08-2015 00:00:00 19.22187 C 83.3750 % 16.34 C
602 25-08-2015 00:00:00 17.40729 C 68.3472 % 11.52 C
603 26-08-2015 00:00:00 20.71458 C 65.1667 % 13.94 C
604 27-08-2015 00:00:00 18.60486 C 83.2986 % 15.72 C
605 28-08-2015 00:00:00 16.57292 C 89.2813 % 14.8 C
606 29-08-2015 00:00:00 19.31181 C 88.3993 % 17.35 C
607 30-08-2015 00:00:00 23.12396 C 82.7396 % 20.03 C
608 31-08-2015 00:00:00 24.2934 C 69.7604 % 18.42 C
609 01-09-2015 00:00:00 17.4059 C 90.9826 % 15.92 C
610 02-09-2015 00:00:00 15.13229 C 84.9479 % 12.62 C
611 03-09-2015 00:00:00 13.95937 C 84.7326 % 11.43 C
612 04-09-2015 00:00:00 13.54792 C 79.5833 % 10.09 C
613 05-09-2015 00:00:00 13.21701 C 84.4479 % 10.65 C
614 06-09-2015 00:00:00 13.11632 C 74.0868 % 8.61 C
615 07-09-2015 00:00:00 13.56493 C 87.0000 % 11.44 C
616 08-09-2015 00:00:00 15.09236 C 84.9271 % 12.58 C
617 09-09-2015 00:00:00 15.60139 C 76.2118 % 11.43 C
618 10-09-2015 00:00:00 13.23854 C 76.5972 % 9.22 C
619 11-09-2015 00:00:00 13.19792 C 79.2847 % 9.69 C
620 12-09-2015 00:00:00 15.35312 C 83.7361 % 12.62 C
621 13-09-2015 00:00:00 17.07153 C 92.6042 % 15.86 C
622 14-09-2015 00:00:00 15.52639 C 91.7431 % 14.19 C
623 15-09-2015 00:00:00 12.94931 C 87.0938 % 10.86 C
624 16-09-2015 00:00:00 15.01667 C 93.7153 % 14.01 C
625 17-09-2015 00:00:00 14.6566 C 91.2049 % 13.24 C
Sensor: Nr:Datum:Temp:Feuchte:Taupunkt:
Aussen-T/F 626 18-09-2015 00:00:00 14.53542 C 85.5278 % 12.14 C
627 19-09-2015 00:00:00 14.32292 C 87.2118 % 12.23 C
628 20-09-2015 00:00:00 13.77188 C 84.7743 % 11.26 C
629 21-09-2015 00:00:00 12.22847 C 90.1354 % 10.66 C
630 22-09-2015 00:00:00 13.06701 C 91.6285 % 11.74 C
631 23-09-2015 00:00:00 11.92535 C 93.3056 % 10.88 C
632 24-09-2015 00:00:00 13.09618 C 90.9340 % 11.65 C
633 25-09-2015 00:00:00 13.95278 C 87.2257 % 11.86 C
634 26-09-2015 00:00:00 12.73889 C 89.2049 % 11.01 C
635 27-09-2015 00:00:00 11.29236 C 83.7500 % 8.65 C
636 28-09-2015 00:00:00 10.50729 C 82.5556 % 7.67 C
637 29-09-2015 00:00:00 10.96979 C 81.2257 % 7.88 C
638 30-09-2015 00:00:00 10.73368 C 77.8993 % 7.04 C
639 01-10-2015 00:00:00 9.88646 C 74.8576 % 5.64 C
640 02-10-2015 00:00:00 9.21528 C 85.2083 % 6.86 C
641 03-10-2015 00:00:00 11.40139 C 85.8993 % 9.13 C
642 04-10-2015 00:00:00 12.61562 C 91.5000 % 11.27 C
643 05-10-2015 00:00:00 11.96597 C 92.3958 % 10.77 C
644 06-10-2015 00:00:00 15.93854 C 95.3576 % 15.2 C
645 07-10-2015 00:00:00 14.99028 C 89.4375 % 13.27 C
646 08-10-2015 00:00:00 13.45521 C 86.9167 % 11.32 C
647 09-10-2015 00:00:00 12.29618 C 93.3993 % 11.26 C
648 10-10-2015 00:00:00 12.19271 C 87.9236 % 10.25 C
649 11-10-2015 00:00:00 8.37431 C 76.8542 % 4.56 C
650 12-10-2015 00:00:00 5.28229 C 82.6007 % 2.57 C
Sensor: Nr:Datum:Temp:Feuchte:Taupunkt:
Aussen-T/F 651 13-10-2015 00:00:00 4.33542 C 90.2049 % 2.88 C
652 14-10-2015 00:00:00 3.63333 C 95.0139 % 2.91 C
653 15-10-2015 00:00:00 4.25694 C 95.2500 % 3.57 C
654 16-10-2015 00:00:00 6.52431 C 92.4236 % 5.39 C
655 17-10-2015 00:00:00 6.99375 C 89.5000 % 5.39 C
656 18-10-2015 00:00:00 7.25556 C 90.9896 % 5.89 C
657 19-10-2015 00:00:00 8.22361 C 91.6285 % 6.94 C
658 20-10-2015 00:00:00 9.33576 C 93.8785 % 8.4 C
659 21-10-2015 00:00:00 9.83611 C 91.5903 % 8.53 C
660 22-10-2015 00:00:00 11.18472 C 88.5000 % 9.36 C
661 23-10-2015 00:00:00 10.26979 C 95.0417 % 9.51 C
662 24-10-2015 00:00:00 11.03438 C 89.7465 % 9.42 C
663 25-10-2015 00:00:00 11.68229 C 92.6528 % 10.53 C
664 26-10-2015 00:00:00 9.55312 C 94.6736 % 8.74 C
665 27-10-2015 00:00:00 8.10278 C 94.6701 % 7.3 C
666 28-10-2015 00:00:00 9.54444 C 91.5382 % 8.24 C
667 29-10-2015 00:00:00 10.48299 C 92.5799 % 9.33 C
668 30-10-2015 00:00:00 7.79965 C 95.7917 % 7.17 C
669 31-10-2015 00:00:00 7.27118 C 93.9479 % 6.36 C
670 01-11-2015 00:00:00 6.57708 C 96.2118 % 6.02 C
671 02-11-2015 00:00:00 4.67431 C 96.7049 % 4.2 C
672 03-11-2015 00:00:00 4.99896 C 95.2813 % 4.31 C
673 04-11-2015 00:00:00 7.79549 C 94.1146 % 6.91 C
674 05-11-2015 00:00:00 10.38299 C 95.2569 % 9.66 C
675 06-11-2015 00:00:00 13.31493 C 92.8854 % 12.19 C
Sensor: Nr:Datum:Temp:Feuchte:Taupunkt:
Aussen-T/F 676 07-11-2015 00:00:00 16.40417 C 94.1493 % 15.46 C
677 08-11-2015 00:00:00 12.97292 C 95.2118 % 12.23 C
678 09-11-2015 00:00:00 14.80846 C 83.2353 % 11.99 C
679 10-11-2015 00:00:00 13.07951 C 84.1493 % 10.47 C
680 11-11-2015 00:00:00 11.7066 C 84.5625 % 9.2 C
681 12-11-2015 00:00:00 11.71562 C 87.6354 % 9.73 C
682 13-11-2015 00:00:00 10.51875 C 88.3993 % 8.68 C
683 14-11-2015 00:00:00 8.91806 C 83.4722 % 6.27 C
684 15-11-2015 00:00:00 12.53854 C 84.1944 % 9.95 C
685 16-11-2015 00:00:00 11.63438 C 83.7708 % 8.99 C
686 17-11-2015 00:00:00 14.03889 C 89.3438 % 12.31 C
687 18-11-2015 00:00:00 13.87604 C 73.4063 % 9.21 C
688 19-11-2015 00:00:00 12.23611 C 85.8750 % 9.94 C
689 20-11-2015 00:00:00 7.64444 C 94.6667 % 6.84 C
690 21-11-2015 00:00:00 3.88021 C 91.2500 % 2.59 C
691 22-11-2015 00:00:00 2.85139 C 91.2396 % 1.57 C
692 23-11-2015 00:00:00 2.48125 C 91.7917 % 1.29 C
693 24-11-2015 00:00:00 1.88785 C 89.9931 % 0.42 C
694 25-11-2015 00:00:00 4.63646 C 91.6528 % 3.4 C
695 26-11-2015 00:00:00 4.92257 C 92.5174 % 3.81 C
696 27-11-2015 00:00:00 2.23299 C 94.7951 % 1.49 C
697 28-11-2015 00:00:00 4.42821 C 85.6357 % 2.24 C
698 29-11-2015 00:00:00 9.10451 C 86.0660 % 6.9 C
699 30-11-2015 00:00:00 9.89514 C 90.3056 % 8.38 C
700 01-12-2015 00:00:00 11.24618 C 92.4410 % 10.07 C
Sensor: Nr:Datum:Temp:Feuchte:Taupunkt:
Aussen-T/F 701 02-12-2015 00:00:00 9.85729 C 87.9375 % 7.96 C
702 03-12-2015 00:00:00 7.55664 C 86.3252 % 5.42 C
703 04-12-2015 00:00:00 6.93333 C 91.5694 % 5.66 C
704 05-12-2015 00:00:00 6.05903 C 89.7500 % 4.51 C
705 06-12-2015 00:00:00 8.44861 C 86.8160 % 6.38 C
706 07-12-2015 00:00:00 8.35868 C 92.6840 % 7.24 C
707 08-12-2015 00:00:00 4.51007 C 97.2292 % 4.11 C
708 09-12-2015 00:00:00 6.58229 C 94.7396 % 5.8 C
709 10-12-2015 00:00:00 3.22882 C 93.5590 % 2.29 C
710 11-12-2015 00:00:00 4.75451 C 92.5069 % 3.65 C
711 12-12-2015 00:00:00 8.05903 C 95.3681 % 7.36 C
712 13-12-2015 00:00:00 8.6316 C 90.9167 % 7.23 C
713 14-12-2015 00:00:00 5.9875 C 96.5243 % 5.48 C
714 15-12-2015 00:00:00 5.6816 C 96.2813 % 5.14 C
715 16-12-2015 00:00:00 9.66146 C 97.4514 % 9.28 C
716 17-12-2015 00:00:00 12.51647 C 94.1098 % 11.6 C
717 18-12-2015 00:00:00 11.17396 C 93.8472 % 10.22 C
718 19-12-2015 00:00:00 11.26667 C 91.7708 % 9.98 C
719 20-12-2015 00:00:00 7.84687 C 96.5278 % 7.33 C
720 21-12-2015 00:00:00 10.07014 C 88.0938 % 8.19 C
721 22-12-2015 00:00:00 11.62281 C 82.5175 % 8.75 C
722 23-12-2015 00:00:00 10.964 C 81.0000 % 7.83 C
723 24-12-2015 00:00:00 11.76867 C 85.1506 % 9.36 C
724 25-12-2015 00:00:00 11.08646 C 87.9063 % 9.16 C
725 26-12-2015 00:00:00 10.37257 C 87.6354 % 8.41 C
Sensor: Nr:Datum:Temp:Feuchte:Taupunkt:
Aussen-T/F 726 27-12-2015 00:00:00 7.5375 C 92.7847 % 6.45 C
727 28-12-2015 00:00:00 2.6941 C 97.0833 % 2.28 C
728 29-12-2015 00:00:00 3.10521 C 97.6493 % 2.77 C
729 30-12-2015 00:00:00 4.88299 C 93.8507 % 3.98 C
730 31-12-2015 00:00:00 5.0934 C 93.0000 % 4.06 C

Maximal/Minimal-Werte vom 01.01.2014 - 31.12.2015

Sensor Min Max Avg
Temp
(Aussen-T/F)
-5.3 °C
28-12-2014  22:40:00
38.6 °C
04-07-2015  16:30:00
11.61 °C
Feuchte
(Aussen-T/F)
18 %
17-07-2015  15:55:00
100 %
01-01-2014  09:25:00
82.78 %
Taupunkt
(Aussen-T/F)
-6.07 C
28-12-2014  00:00:00
21.29 C
04-07-2015  00:00:00
8.61 C

Die Daten stammen von einer Davis Vantage Pro 2 Wetter-Station und werden unter Linux mit der Software wview2wettercgi und aufbereitet. Alle Angaben erfolgen ohne Gewähr für ihre Vollständigkeit oder Richtigkeit.
Kontakt: Rainer Krienke krienke@uni-koblenz.de . Meine Webseiten an der Uni Koblenz oder privat.
Version: $Revision: 0.78 $